Theta_e
297 298 299 301 301 302 302 302 302 302 302 300 300 298 298 297 294 290 289 294 292 283 279 287 288 284 285 280 278 277 276 279 277 275 274 274 273 268 272 267 267 269 269 269 270 268 267 275 275 274 277 272 270 264
296 297 298 299 301 301 302 302 302 302 302 301 300 299 298 297 295 291 284 289 293 286 278 289 289 289 289 287 283 278 278 281 281 277 275 277 274 273 270 263 276 272 274 272 274 276 279 277 278 277 272 277 278 272
295 296 297 298 300 301 301 302 302 302 301 301 300 300 299 298 296 291 283 284 284 276 279 276 275 282 285 286 288 278 284 283 283 284 280 276 274 278 270 270 270 274 277 275 277 281 281 284 282 278 278 279 281 279
295 295 297 297 299 300 301 301 301 301 300 301 301 301 300 299 297 291 283 284 282 277 267 270 286 283 286 286 286 288 285 286 286 285 281 274 273 277 274 275 275 277 278 277 278 282 284 283 285 283 284 279 282 282
294 295 296 297 296 300 301 301 301 301 300 300 300 299 300 299 298 288 285 286 284 277 266 266 279 282 284 284 284 287 287 285 283 281 273 272 276 277 275 277 276 277 277 277 276 281 281 281 283 284 283 282 283 283
294 294 296 295 297 300 299 300 301 300 300 299 298 299 299 299 296 290 280 283 285 281 269 263 275 279 281 283 284 284 286 285 284 281 274 276 280 280 270 274 276 278 278 279 278 280 278 280 283 280 279 281 282 282
294 294 295 295 297 299 300 300 301 300 299 297 297 297 298 297 292 285 280 282 288 282 270 264 263 279 280 280 282 283 284 284 283 279 277 278 281 281 272 271 275 276 276 275 276 275 275 279 275 277 278 277 277 277
293 294 295 295 295 298 299 300 300 298 296 295 295 295 296 296 294 287 288 293 287 279 270 260 262 274 280 277 276 279 279 279 277 275 273 273 276 278 274 274 275 275 274 273 274 273 273 274 275 274 274 273 273 274
293 294 294 293 294 297 297 299 297 295 295 294 294 294 290 287 284 285 294 290 284 279 267 259 264 263 279 278 278 276 278 272 267 267 272 275 266 270 274 273 274 272 270 270 270 269 270 271 271 271 272 272 272 272
293 294 293 293 293 298 297 296 295 295 295 293 289 284 280 285 292 292 285 281 279 274 269 266 262 272 277 275 271 267 274 271 263 267 269 266 266 271 274 273 273 272 270 268 263 269 267 268 268 268 269 272 271 271
293 293 293 294 297 297 296 295 295 294 292 285 282 279 284 293 284 280 275 275 272 267 266 267 270 269 272 267 263 266 266 266 264 265 267 262 264 272 271 268 268 266 265 264 263 264 265 266 266 267 268 269 269 269
293 292 291 297 295 296 296 296 295 286 282 284 283 286 284 279 276 274 271 267 263 264 261 268 270 270 272 272 269 271 269 270 267 262 263 260 269 272 269 269 268 263 260 262 260 262 264 266 267 267 267 266 266 267
294 292 294 296 297 297 296 294 292 292 287 281 280 273 275 271 269 265 260 260 260 260 265 272 272 273 272 272 269 266 268 267 261 261 261 266 269 267 267 263 264 261 260 258 259 259 261 262 264 263 266 266 265 265
295 297 296 296 296 295 295 293 293 288 279 275 268 267 265 262 260 261 261 263 267 266 271 268 270 270 271 272 269 270 263 263 257 257 260 265 268 269 268 260 257 260 259 259 259 259 258 258 262 264 264 264 264 264
294 294 295 294 294 294 293 293 290 279 274 271 266 262 260 261 258 260 257 261 267 267 269 268 268 270 272 266 270 263 263 260 261 262 264 267 268 263 260 258 260 259 259 257 254 254 255 256 259 263 264 263 262 263
293 291 289 293 293 293 293 290 284 277 271 272 262 259 257 260 261 268 266 261 269 271 269 266 261 262 264 265 267 264 260 259 264 261 265 263 261 261 260 261 263 259 256 255 254 253 254 255 258 261 262 261 261 262
288 283 291 292 292 292 291 283 281 277 273 272 264 254 258 258 264 261 262 264 267 269 263 261 261 262 262 261 261 259 260 264 262 262 259 260 267 267 265 257 258 257 255 254 252 252 254 254 255 258 260 261 260 263
282 288 290 291 289 285 279 278 275 274 264 260 269 265 258 259 260 258 257 268 267 263 262 263 264 259 259 257 256 261 261 261 258 263 261 259 257 258 259 261 255 255 254 253 252 253 252 254 255 257 258 259 259 259
287 288 290 289 285 278 276 274 274 269 262 260 264 260 259 261 258 259 259 261 261 264 269 264 261 260 259 260 262 263 262 259 266 266 260 258 259 261 259 256 253 252 254 254 253 255 254 255 256 257 260 262 261 261
291 290 289 288 284 275 271 271 270 269 267 266 262 262 258 258 257 253 257 260 263 261 263 259 261 263 263 266 265 267 267 261 259 260 267 266 259 256 258 259 260 256 253 251 251 253 253 255 255 257 259 262 260 260
288 287 286 280 272 271 271 270 267 261 264 262 260 258 260 255 258 258 260 257 269 262 263 265 267 272 265 267 262 263 265 262 266 269 273 273 268 261 257 256 254 251 255 252 255 254 255 255 255 256 260 260 260 261
283 287 273 273 267 264 265 262 264 264 262 257 257 259 255 258 256 257 255 260 261 265 264 264 269 274 273 268 273 265 268 264 263 261 257 257 262 258 259 260 254 257 256 257 256 257 256 254 256 260 261 260 261 260
285 281 272 270 268 265 264 262 262 259 260 260 258 258 256 259 255 259 258 258 263 264 263 262 259 254 263 259 253 254 251 254 261 263 260 258 263 258 255 253 256 258 257 255 252 257 258 260 262 261 261 261 260 259
282 274 269 264 261 259 260 258 257 256 255 260 262 258 255 253 261 260 259 256 262 253 255 258 252 257 256 253 256 263 256 255 256 258 257 259 261 260 258 260 255 257 258 255 259 261 262 262 262 262 261 260 259 258
273 272 271 261 256 259 257 257 254 256 257 259 259 256 255 261 264 264 260 259 259 258 263 251 252 256 263 263 258 258 262 263 263 261 258 259 260 256 255 257 256 255 259 262 262 262 262 262 261 260 260 259 258 258
261 265 263 261 257 261 260 258 257 258 255 254 256 252 252 262 260 257 257 260 258 258 256 259 260 254 257 261 258 261 262 262 261 259 260 260 261 260 258 259 259 260 263 265 264 262 261 261 260 259 258 258 258 257
265 261 258 253 258 257 255 254 255 258 257 259 256 255 259 257 257 260 259 256 258 255 251 252 256 259 257 257 259 261 262 261 260 260 260 259 260 261 262 262 261 263 264 264 263 262 261 260 259 258 257 258 257 257
265 260 262 258 254 254 258 254 257 259 260 256 257 257 258 259 262 263 263 253 249 248 250 251 253 254 255 257 259 260 261 261 261 261 261 261 261 261 263 264 264 267 264 264 263 262 261 260 259 258 257 256 255 256
261 253 261 253 251 253 259 260 260 260 259 261 262 257 258 259 256 252 251 249 247 251 252 252 253 254 255 257 259 261 261 260 259 259 259 259 258 258 261 262 262 262 263 262 264 262 260 259 258 257 255 253 252 251
257 257 260 256 260 261 261 256 254 247 248 249 247 253 253 251 249 244 246 248 251 254 254 254 254 256 256 258 259 259 261 261 261 260 260 260 259 259 260 260 261 261 261 261 261 260 261 257 257 254 253 252 251 249
253 257 257 259 262 251 247 244 244 246 247 247 243 248 250 247 251 247 250 250 251 252 254 253 255 257 258 259 259 259 259 261 261 261 262 260 260 260 261 261 261 261 259 258 257 257 256 255 254 252 251 249 248 248
255 260 263 262 253 246 248 249 245 246 243 245 246 240 245 248 253 256 247 250 252 252 254 255 257 258 261 262 262 262 263 261 261 261 261 260 260 260 260 260 260 259 258 257 257 256 255 253 251 250 249 248 247 246
252 251 252 254 252 252 250 251 250 251 244 243 244 243 244 250 258 253 248 247 250 253 255 256 258 260 261 261 260 260 261 261 262 263 262 261 260 260 259 259 259 258 257 256 254 253 252 251 250 249 248 246 245 244
Wind_Speed
24 22 22 23 22 22 22 21 22 23 21 18 17 15 13 9 5 3 2 2 1 2 3 1 1 3 2 2 4 3 4 0 2 3 2 2 1 3 2 4 6 6 5 4 2 2 5 6 1 4 7 5 4 5
25 24 21 21 23 22 22 21 20 21 24 25 22 18 15 12 8 5 1 2 2 3 4 3 3 4 3 2 3 2 4 3 2 2 2 1 1 0 1 4 2 2 5 4 7 6 4 6 7 6 5 9 8 4
23 25 21 18 22 22 21 21 20 21 24 24 23 21 17 14 11 6 3 1 4 3 3 4 2 3 5 6 3 4 1 2 2 2 1 1 3 0 2 5 2 3 2 2 3 3 6 7 6 5 4 7 9 8
23 25 21 16 21 23 22 21 21 19 16 21 23 20 19 16 14 7 3 2 5 3 4 6 2 3 2 5 1 1 4 2 3 1 1 2 1 2 2 3 3 4 3 3 6 9 13 4 9 8 16 6 9 8
23 25 19 19 22 23 23 23 23 21 20 19 18 16 16 14 15 5 2 3 3 6 5 3 3 2 3 2 3 2 4 3 2 1 1 3 1 2 2 2 3 2 4 4 5 15 6 18 18 18 14 15 15 16
25 23 17 17 26 22 22 22 22 23 22 21 18 16 19 15 15 4 3 1 3 4 5 1 4 2 2 2 1 1 1 1 2 3 3 1 0 2 1 3 1 6 6 5 7 16 12 18 13 13 18 18 15 14
25 19 19 17 16 20 20 24 25 26 24 22 18 16 16 21 6 3 5 3 8 4 5 3 3 1 2 1 2 1 1 1 0 1 1 2 2 2 2 3 7 9 9 13 4 12 6 3 11 17 13 15 14 11
22 18 18 15 16 18 19 25 27 28 25 21 18 14 14 15 10 2 2 12 5 5 4 4 3 1 2 1 2 1 1 2 2 1 1 2 2 1 3 5 6 10 13 8 11 10 13 16 14 14 12 12 14 13
18 16 14 11 17 15 22 27 30 26 23 21 18 14 5 3 2 3 10 9 3 4 4 3 6 4 2 1 2 1 1 1 2 1 2 2 1 4 3 3 7 7 5 13 15 15 12 9 13 13 14 14 13 14
16 16 12 13 12 21 33 32 28 27 25 22 6 3 3 3 7 17 3 2 3 3 3 3 1 3 2 2 0 3 1 2 1 5 1 2 3 4 4 5 5 7 7 8 8 14 13 16 14 16 15 12 12 13
15 14 12 11 24 32 34 32 31 28 16 3 3 2 1 10 3 2 3 3 2 2 1 2 3 5 2 4 4 1 4 2 1 5 4 2 3 4 4 4 4 5 5 7 7 9 10 12 15 16 15 13 12 13
19 12 5 35 34 33 31 29 31 8 4 6 7 4 3 3 3 3 2 1 2 7 2 4 4 3 2 2 5 3 3 1 5 1 3 3 5 5 4 5 6 4 4 8 5 9 10 11 11 11 11 11 11 13
19 12 24 32 31 30 29 29 20 25 13 4 4 4 2 0 2 7 7 4 1 3 4 4 3 3 2 2 4 3 4 5 1 2 5 5 3 3 5 3 6 6 6 6 9 7 8 8 9 5 10 8 9 10
19 30 30 28 28 28 29 27 26 12 7 4 4 3 5 1 4 6 6 5 4 3 6 3 3 3 2 3 3 5 2 4 3 0 7 4 7 7 6 3 2 6 6 9 10 9 9 6 6 7 5 6 7 10
31 28 26 25 26 25 25 26 16 6 4 3 4 5 4 3 1 3 2 1 1 2 4 4 3 2 2 3 2 4 2 4 6 6 4 5 7 5 4 5 7 7 7 7 5 5 6 4 4 6 6 6 5 7
25 18 8 25 23 22 25 17 5 4 4 3 4 3 1 4 3 1 2 1 3 4 3 4 4 4 2 3 4 7 7 7 5 5 4 4 4 5 6 6 8 6 7 6 4 4 5 5 4 4 5 5 5 5
17 3 13 20 20 20 17 5 3 3 4 3 3 1 3 1 5 4 4 4 3 3 3 4 5 7 2 2 3 5 7 5 5 4 3 5 7 8 7 4 6 5 7 6 3 5 5 5 3 4 5 5 4 4
5 8 15 16 13 10 3 3 3 3 3 3 3 3 1 1 3 1 3 2 4 3 4 4 5 2 6 6 5 5 5 4 4 5 4 5 5 6 6 7 5 6 5 5 5 4 2 2 2 2 2 3 4 4
10 12 19 17 8 5 3 2 2 3 4 2 1 2 1 1 2 1 2 2 1 1 6 3 3 4 5 5 6 5 5 5 5 4 4 5 6 7 7 5 4 5 5 4 2 3 3 5 4 2 1 2 1 2
22 19 14 12 7 4 4 1 2 3 3 2 2 2 2 2 2 2 2 1 3 3 3 1 6 6 6 6 6 5 4 2 4 3 6 5 4 5 7 7 6 4 3 3 3 3 1 2 2 1 2 3 1 1
9 6 6 6 4 5 4 2 2 3 3 3 1 2 1 3 4 2 0 1 3 3 4 6 6 7 5 6 4 4 5 5 6 7 12 11 5 5 4 5 3 2 4 3 3 3 4 4 3 2 3 3 2 2
2 4 3 4 5 3 5 1 3 1 4 1 3 3 2 1 2 3 2 3 4 5 6 6 7 9 8 7 11 7 8 4 5 5 3 1 2 3 5 5 4 5 5 5 5 5 4 3 3 3 5 4 4 3
7 4 4 4 6 6 2 2 5 5 5 1 1 4 3 2 4 1 1 4 6 6 4 5 4 1 5 4 4 4 4 4 5 6 3 4 6 4 2 3 4 5 4 4 3 4 4 6 6 6 6 5 5 5
5 4 4 3 4 1 2 4 3 3 3 3 3 2 4 4 2 2 4 5 6 1 1 6 3 2 3 3 4 6 3 3 3 3 3 3 6 6 6 6 4 5 5 3 5 5 6 6 8 6 7 6 6 6
5 4 5 1 2 5 3 2 1 3 4 3 3 4 4 1 3 4 5 6 4 4 5 2 1 3 5 5 3 1 2 2 3 5 3 4 4 1 1 1 2 4 4 6 7 8 7 7 7 8 7 7 9 8
4 6 7 8 1 6 7 6 6 7 4 3 7 1 1 3 1 8 6 6 5 5 5 6 6 2 4 6 3 1 1 0 1 3 4 4 5 4 3 4 3 3 3 5 8 9 10 9 9 11 9 10 10 10
4 7 2 1 4 5 4 2 2 4 6 7 4 4 4 3 7 8 5 4 4 4 4 3 4 4 3 2 1 2 1 1 3 4 3 2 3 2 2 4 6 3 5 7 8 10 12 11 11 11 10 8 7 7
6 8 11 5 2 1 6 4 6 8 5 3 5 6 11 12 10 6 6 2 2 2 2 1 1 2 2 2 2 1 1 1 1 1 1 0 3 4 3 2 4 10 7 7 8 9 10 11 11 12 11 10 8 5
3 3 6 4 3 2 6 8 9 6 5 6 8 7 8 6 4 3 3 3 2 3 2 2 3 2 1 2 2 2 2 3 3 3 4 1 1 3 4 4 6 6 7 9 14 13 15 12 12 11 12 10 7 6
5 3 5 5 8 9 6 5 4 1 1 1 1 3 4 4 4 2 2 3 4 6 4 4 3 4 3 3 2 2 2 3 2 2 2 2 2 3 3 5 6 8 8 11 12 15 20 16 16 11 10 8 7 7
1 3 3 3 6 1 2 2 1 1 1 1 1 2 4 5 6 4 5 3 2 3 4 3 2 3 4 4 4 3 3 3 3 3 1 4 6 6 6 6 6 8 9 11 11 11 13 12 11 11 10 10 8 8
1 3 3 6 3 3 2 2 1 1 3 2 3 2 4 3 4 4 2 2 3 3 3 3 4 4 4 2 2 1 1 4 4 5 7 6 7 8 8 8 8 9 10 11 12 12 14 13 10 10 10 11 9 8
2 2 1 3 2 1 1 2 2 3 1 2 4 4 4 4 8 3 2 0 3 3 4 3 1 2 5 5 4 3 5 5 7 10 12 12 12 11 8 7 8 10 13 12 11 12 13 15 12 11 11 10 9 7
Wind_Direction
269 267 282 253 246 240 238 229 210 211 203 203 203 201 200 190 184 123 256 1 121 134 258 162 179 163 117 81 147 203 65 148 103 196 223 217 238 235 288 218 179 173 161 198 137 236 288 180 114 97 233 290 238 215
262 264 266 273 247 243 231 225 213 207 196 195 205 197 194 185 170 122 143 323 357 87 194 38 40 22 35 56 135 149 173 162 179 103 232 84 285 79 116 291 230 272 192 192 203 224 225 199 234 251 193 273 289 241
255 257 255 278 258 238 226 215 206 198 196 203 198 194 189 182 168 133 145 227 63 71 333 49 270 9 38 29 329 124 219 151 128 157 142 201 242 314 215 248 299 282 157 242 356 322 264 273 246 231 245 238 274 252
246 256 249 252 291 234 222 210 198 186 197 201 198 197 185 177 167 135 125 170 88 111 123 282 302 35 29 10 327 20 124 106 100 137 227 141 150 209 241 262 251 230 147 241 265 301 309 301 343 318 314 295 299 297
241 248 236 236 290 232 220 200 194 190 184 179 173 189 174 169 178 114 109 190 138 126 186 249 329 14 4 326 236 169 190 182 140 208 138 218 211 111 276 270 262 328 347 347 296 318 287 298 312 317 340 329 318 312
239 241 224 216 275 223 199 207 184 170 164 153 156 164 175 166 138 85 9 283 156 123 93 52 277 35 326 354 122 132 161 129 184 178 204 300 314 164 182 251 69 331 302 276 290 321 295 281 312 358 322 321 325 312
232 237 218 216 276 217 199 185 178 163 158 153 151 154 158 143 133 148 186 206 152 101 86 17 349 79 269 333 54 90 20 86 90 143 194 186 223 197 162 223 301 316 317 317 331 335 319 358 314 315 316 320 317 299
223 226 208 201 251 231 216 185 170 155 148 146 141 142 150 133 105 81 340 138 109 87 75 111 275 262 203 156 121 346 101 46 22 133 336 196 12 329 244 251 324 327 319 302 331 323 278 287 302 307 313 322 328 326
219 223 197 209 232 210 192 155 147 145 139 130 133 121 91 64 138 178 139 94 63 122 145 101 144 219 200 94 95 68 40 139 285 147 249 122 267 225 207 274 306 306 306 291 312 302 294 303 306 318 323 327 323 319
219 198 203 245 212 190 146 143 139 140 136 124 80 103 164 188 156 114 87 89 6 340 42 166 60 147 164 75 98 87 0 174 113 246 60 113 240 260 233 219 257 284 291 313 329 339 333 327 329 327 324 320 316 312
198 201 216 234 154 146 144 143 141 136 115 83 113 100 220 134 86 53 134 157 116 354 221 214 181 147 272 126 185 174 175 170 187 254 141 239 264 233 208 249 262 275 277 278 234 267 281 282 301 314 319 323 320 315
200 192 226 153 145 151 151 147 137 103 127 136 114 97 80 56 47 132 141 59 120 217 266 158 198 165 165 124 100 186 160 192 236 181 88 261 242 206 194 258 281 275 274 285 257 274 281 285 291 293 299 310 316 311
201 181 175 149 148 146 144 133 117 118 99 58 61 73 129 59 148 166 184 275 279 199 199 167 133 138 97 64 79 109 172 223 76 85 224 228 244 230 215 247 293 304 304 289 290 282 277 275 287 277 307 311 316 320
177 148 132 131 133 139 143 130 130 109 77 85 119 134 161 228 253 185 181 187 227 133 135 127 93 126 151 114 160 184 211 80 63 267 231 219 217 221 210 201 98 275 295 281 274 270 271 275 304 301 302 312 335 335
117 122 124 131 135 138 141 139 118 62 88 109 91 193 191 228 248 214 184 24 190 151 117 87 60 75 122 100 199 102 78 248 206 226 217 209 213 203 226 221 221 242 256 258 252 266 278 304 320 314 320 329 344 337
108 86 119 133 138 143 140 114 56 71 54 101 69 80 306 57 301 207 150 202 187 140 120 64 106 72 199 148 166 208 140 214 242 215 219 174 221 223 223 220 231 224 248 266 288 275 293 314 308 306 327 338 342 9
71 48 135 141 138 124 107 81 94 78 120 152 261 113 133 116 178 203 151 210 149 88 149 112 104 209 97 110 242 193 199 218 213 239 221 204 208 228 232 232 253 241 250 257 256 270 262 280 313 35 7 333 332 17
77 136 150 159 137 76 48 45 83 89 139 222 156 223 206 226 137 254 223 177 113 133 124 190 130 125 188 175 251 239 234 249 214 221 221 220 221 225 215 227 204 212 235 250 235 255 268 345 13 319 314 318 327 3
123 118 104 100 94 92 89 64 72 142 221 214 213 108 167 238 253 328 111 89 107 141 106 57 104 196 229 211 212 247 243 201 243 260 231 240 214 201 218 217 205 226 234 231 219 247 234 223 221 229 239 58 333 331
132 122 112 130 122 104 86 37 68 125 166 182 49 38 102 175 315 12 59 40 93 87 59 140 211 215 197 225 200 224 235 143 124 324 285 276 223 176 205 201 212 204 212 262 260 222 243 280 288 133 94 79 82 352
99 157 102 133 58 62 86 119 105 154 157 112 158 109 207 7 22 18 282 327 78 182 225 218 231 251 221 247 208 193 237 168 219 239 268 277 261 200 204 214 210 189 196 195 212 247 207 200 206 151 113 88 52 40
99 85 70 37 79 54 85 2 126 76 64 140 47 42 73 106 240 248 182 79 212 226 201 200 226 236 251 258 258 203 252 236 243 267 355 78 274 258 243 214 153 225 216 216 192 204 204 180 149 122 115 101 88 80
101 51 44 45 65 43 313 44 73 4 104 207 70 38 336 317 231 17 199 218 242 235 211 214 238 257 234 316 336 279 207 188 247 248 259 239 252 252 256 229 186 196 234 250 187 174 161 152 144 132 118 113 114 98
62 66 87 79 79 180 7 21 40 64 47 64 99 269 272 222 215 70 253 253 248 323 209 226 164 303 314 300 253 264 238 180 243 268 211 240 262 258 221 235 197 214 202 174 158 156 148 144 137 131 122 123 115 111
110 182 129 88 353 96 84 75 9 72 171 171 149 271 262 184 175 222 232 263 257 242 245 197 188 198 221 265 290 200 95 227 277 285 262 220 251 289 281 213 197 200 172 153 162 153 144 138 133 125 126 129 124 118
167 222 160 182 205 150 177 155 189 187 145 162 223 283 24 125 164 246 235 231 231 216 207 193 192 199 248 217 244 251 246 95 291 266 278 247 226 204 199 189 179 214 200 170 155 146 139 135 130 125 120 118 122 116
201 232 230 341 112 113 71 25 61 129 164 192 184 141 120 167 238 245 263 224 210 219 200 180 161 181 193 194 233 247 274 239 227 263 282 308 317 297 217 200 197 174 152 145 144 146 141 135 127 124 118 111 110 115
202 164 170 179 95 359 138 145 161 192 198 193 103 175 181 197 224 228 214 263 187 150 122 147 153 144 159 209 229 278 292 327 268 227 236 20 12 1 352 71 116 124 119 125 127 128 127 124 126 124 122 115 102 97
179 202 119 125 121 170 198 181 203 216 168 161 177 202 226 220 229 205 229 205 163 117 152 206 262 172 225 236 228 229 194 192 202 247 266 283 355 17 9 64 86 95 105 108 109 111 114 115 116 114 104 97 100 91
217 184 109 157 163 207 211 175 216 273 58 154 308 321 301 268 244 202 135 136 168 208 192 186 174 162 189 185 193 224 213 202 212 263 298 236 157 120 95 95 101 105 110 113 109 105 101 99 100 94 97 106 100 101
140 132 85 161 206 334 297 292 301 53 68 44 33 181 259 309 300 227 212 196 167 140 138 161 178 183 182 186 200 199 221 197 213 259 205 117 125 120 119 116 108 104 108 111 115 115 113 105 105 110 108 108 109 107
119 204 171 187 246 303 358 58 36 67 339 23 271 329 323 19 270 261 252 132 146 163 188 162 170 201 191 155 138 100 47 118 124 124 124 116 108 105 105 104 105 108 110 110 111 109 107 112 116 117 117 108 99 98
67 62 96 128 117 112 252 121 41 311 332 269 254 204 223 192 236 260 313 129 170 169 181 189 164 110 126 124 124 110 93 102 119 122 119 116 115 111 104 102 106 109 108 106 105 110 110 114 113 113 109 109 108 108